Location: Cuguron
(43.0994°N, 0.5363°E)
Time: 20:52:35
(UTC+00:00)

Helios 1A Rocket - Pass Details

Date: 15 May 2026
Orbit: 400 x 410 km, 98.3° (Epoch: 7 June)

Event Time Altitude Azimuth Distance (km) Brightness Sun altitude
Rises 20:07:37 0° 14° (NNE) 2,335 6.4 -9.0°
Reaches altitude 10° 20:09:37 10° 15° (NNE) 1,467 5.3 -9.3°
Maximum altitude 20:12:44 84° 103° (ESE) 410 2.1 -9.8°
Drops below altitude 10° 20:15:50 10° 192° (SSW) 1,447 4.7 -10.2°
Sets 20:17:47 0° 193° (SSW) 2,300 5.7 -10.5°
